Weather History for Owatonna, MN

Change the Weather History Date:

Thursday, December 13, 2012

  Actual Average Record
Temperature  
Mean Temperature 28 °F -  
Max Temperature 39 °F 29 °F 53 °F (1998)
Min Temperature 17 °F 12 °F -19 °F (1985)
Degree Days  
Heating Degree Days 37    
Moisture  
Dew Point 16 °F    
Average Humidity 56    
Maximum Humidity 80    
Minimum Humidity 33    
Precipitation  
Precipitation 0.00 in - - ()
Sea Level Pressure  
Sea Level Pressure 29.98 in    
Wind  
Wind Speed 10 mph (SSW)    
Max Wind Speed 18 mph    
Max Gust Speed 31 mph    
Visibility 9 miles    
Events      
Averages and records for this station are not official NWS values.
T = Trace of Precipitation, MM = Missing Value Source: NWS Daily Summary

Daily Weather History Graph

Daily Weather History Graph

Search for Another Location

Airport:

Trip Planner

Search our weather history database for the weather conditions in past years. The results will help you decide how hot, cold, wet, or windy it might be!

Date:

Astronomy

Dec. 13, 2012 Rise Set
Actual Time 7:40 AM CST 4:34 PM CST
Civil Twilight 7:07 AM CST 5:07 PM CST
Nautical Twilight 6:30 AM CST 5:44 PM CST
Astronomical Twilight 5:55 AM CST 6:19 PM CST
Moon 7:48 AM CST (12/13) 5:18 PM CST (12/13)
Length of Visible Light 10h 00m
Length of Day
8h 54m
New Moon, 0% of the Moon is Illuminated
Dec 13
New Moon
Dec 19
First Quarter
Dec 28
Full
Jan 4
Last Quarter
Jan 11
New

Hourly Weather History & Observations

Time (CST) Temp. Windchill Dew Point Humidity Pressure Visibility Wind Dir Wind Speed Gust Speed Precip Events Conditions
12:13 AM 39.2 °F 30.5 °F 15.8 °F 39% 29.94 in 10.0 mi South 16.1 mph 31.1 mph N/A   Clear
12:34 AM 39.2 °F 30.5 °F 15.8 °F 39% 29.94 in 10.0 mi South 16.1 mph 20.7 mph N/A   Clear
12:54 AM 39.2 °F 30.2 °F 15.8 °F 39% 29.93 in 10.0 mi South 17.3 mph 21.9 mph N/A   Clear
1:14 AM 39.2 °F 29.8 °F 14.0 °F 36% 29.93 in 10.0 mi South 18.4 mph 24.2 mph N/A   Clear
1:33 AM 39.2 °F 30.2 °F 12.2 °F 33% 29.92 in 10.0 mi South 17.3 mph 25.3 mph N/A   Clear
1:54 AM 39.2 °F 30.2 °F 14.0 °F 36% 29.92 in 10.0 mi South 17.3 mph 21.9 mph N/A   Clear
2:13 AM 39.2 °F 29.8 °F 12.2 °F 33% 29.92 in 10.0 mi South 18.4 mph 26.5 mph N/A   Clear
2:33 AM 39.2 °F 30.5 °F 12.2 °F 33% 29.92 in 10.0 mi South 16.1 mph 23.0 mph N/A   Clear
2:53 AM 37.4 °F 28.5 °F 14.0 °F 38% 29.92 in 10.0 mi South 15.0 mph - N/A   Clear
3:14 AM 37.4 °F 28.5 °F 14.0 °F 38% 29.92 in 10.0 mi South 15.0 mph - N/A   Clear
3:34 AM 37.4 °F 28.9 °F 15.8 °F 41% 29.92 in 10.0 mi South 13.8 mph - N/A   Clear
3:54 AM 35.6 °F 27.5 °F 15.8 °F 44% 29.92 in 10.0 mi South 11.5 mph - N/A   Clear
4:13 AM 35.6 °F 27.5 °F 15.8 °F 44% 29.91 in 10.0 mi South 11.5 mph - N/A   Clear
4:34 AM 35.6 °F 26.6 °F 15.8 °F 44% 29.91 in 10.0 mi South 13.8 mph 19.6 mph N/A   Clear
4:54 AM 35.6 °F 28.0 °F 15.8 °F 44% 29.91 in 10.0 mi South 10.4 mph - N/A   Clear
5:14 AM 33.8 °F 25.8 °F 15.8 °F 48% 29.91 in 10.0 mi SSE 10.4 mph - N/A   Clear
5:33 AM 33.8 °F 24.8 °F 15.8 °F 48% 29.91 in 10.0 mi SSE 12.7 mph - N/A   Clear
5:53 AM 33.8 °F 26.4 °F 15.8 °F 48% 29.91 in 10.0 mi South 9.2 mph - N/A   Clear
6:13 AM 33.8 °F 27.0 °F 15.8 °F 48% 29.92 in 10.0 mi South 8.1 mph - N/A   Clear
6:34 AM 33.8 °F 26.4 °F 15.8 °F 48% 29.93 in 10.0 mi South 9.2 mph - N/A   Clear
6:54 AM 33.8 °F 27.7 °F 15.8 °F 48% 29.93 in 10.0 mi South 6.9 mph - N/A   Clear
7:14 AM 33.8 °F 26.4 °F 15.8 °F 48% 29.93 in 10.0 mi South 9.2 mph - N/A   Clear
7:34 AM 33.8 °F 27.0 °F 15.8 °F 48% 29.94 in 10.0 mi South 8.1 mph - N/A   Clear
7:53 AM 32.0 °F 24.8 °F 15.8 °F 51% 29.94 in 10.0 mi South 8.1 mph - N/A   Clear
8:13 AM 32.0 °F 24.8 °F 15.8 °F 51% 29.94 in 10.0 mi South 8.1 mph - N/A   Clear
8:33 AM 32.0 °F 24.8 °F 15.8 °F 51% 29.94 in 10.0 mi South 8.1 mph - N/A   Clear
8:54 AM 33.8 °F 26.4 °F 15.8 °F 48% 29.94 in 10.0 mi South 9.2 mph - N/A   Clear
9:14 AM 33.8 °F 27.0 °F 15.8 °F 48% 29.95 in 10.0 mi South 8.1 mph - N/A   Clear
9:34 AM 33.8 °F 27.0 °F 15.8 °F 48% 29.95 in 10.0 mi South 8.1 mph - N/A   Clear
9:54 AM 33.8 °F 27.7 °F 15.8 °F 48% 29.96 in 10.0 mi South 6.9 mph - N/A   Clear
10:14 AM 33.8 °F 27.7 °F 17.6 °F 52% 29.97 in 10.0 mi South 6.9 mph - N/A   Clear
10:34 AM 30.2 °F 22.6 °F 17.6 °F 60% 29.98 in 10.0 mi SSW 8.1 mph - N/A   Clear
10:54 AM 33.8 °F 27.7 °F 19.4 °F 56% 29.98 in 10.0 mi SSW 6.9 mph - N/A   Clear
11:14 AM 33.8 °F 29.6 °F 19.4 °F 56% 29.98 in 10.0 mi SW 4.6 mph - N/A   Clear
11:34 AM 35.6 °F 29.2 °F 19.4 °F 52% 29.98 in 10.0 mi WSW 8.1 mph - N/A   Clear
11:53 AM 35.6 °F 29.2 °F 19.4 °F 52% 29.98 in 10.0 mi WSW 8.1 mph - N/A   Clear
12:13 PM 35.6 °F 29.2 °F 19.4 °F 52% 29.99 in 10.0 mi West 8.1 mph - N/A   Clear
12:34 PM 35.6 °F 29.2 °F 19.4 °F 52% 29.99 in 10.0 mi WSW 8.1 mph - N/A   Clear
12:54 PM 33.8 °F 29.6 °F 19.4 °F 56% 29.99 in 10.0 mi WSW 4.6 mph - N/A   Clear
1:14 PM 35.6 °F 31.7 °F 19.4 °F 52% 29.98 in 10.0 mi SW 4.6 mph - N/A   Clear
1:34 PM 33.8 °F 30.8 °F 19.4 °F 56% 29.98 in 10.0 mi SW 3.5 mph - N/A   Clear
1:54 PM 33.8 °F - 19.4 °F 56% 29.98 in 10.0 mi Calm Calm - N/A   Clear
2:14 PM 33.8 °F - 21.2 °F 60% 29.99 in 10.0 mi Calm Calm - N/A   Clear
2:34 PM 35.6 °F 32.8 °F 21.2 °F 56% 29.99 in 10.0 mi West 3.5 mph - N/A   Clear
2:54 PM 35.6 °F 31.7 °F 19.4 °F 52% 30.01 in 10.0 mi WNW 4.6 mph - N/A   Clear
3:14 PM 32.0 °F 27.5 °F 21.2 °F 64% 30.01 in 10.0 mi WSW 4.6 mph - N/A   Clear
3:34 PM 30.2 °F 26.7 °F 21.2 °F 69% 30.01 in 10.0 mi WSW 3.5 mph - N/A   Clear
3:54 PM 30.2 °F 24.3 °F 21.2 °F 69% 30.03 in 10.0 mi WSW 5.8 mph - N/A   Clear
4:14 PM 28.4 °F 23.3 °F 19.4 °F 69% 30.03 in 10.0 mi WSW 4.6 mph - N/A   Clear
4:34 PM 26.6 °F 21.2 °F 19.4 °F 74% 30.04 in 7.0 mi West 4.6 mph - N/A   Clear
4:54 PM 26.6 °F 21.2 °F 19.4 °F 74% 30.04 in 10.0 mi WSW 4.6 mph - N/A   Clear
5:34 PM 24.8 °F 17.9 °F 17.6 °F 74% 30.06 in 7.0 mi WSW 5.8 mph - N/A   Clear
5:54 PM 26.6 °F 20.0 °F 17.6 °F 69% 30.07 in 7.0 mi WSW 5.8 mph - N/A   Clear
6:54 PM 23.0 °F - 15.8 °F 74% 30.07 in 10.0 mi Calm Calm - N/A   Clear
7:14 PM 23.0 °F - 15.8 °F 74% 30.06 in 7.0 mi Calm Calm - N/A   Clear
7:34 PM 21.2 °F - 15.8 °F 80% 30.07 in 7.0 mi Calm Calm - N/A   Clear
7:54 PM 23.0 °F - 15.8 °F 74% 30.07 in 7.0 mi Calm Calm - N/A   Clear
8:13 PM 21.2 °F - 15.8 °F 80% 30.07 in 7.0 mi Calm Calm - N/A   Clear
8:34 PM 23.0 °F - 15.8 °F 74% 30.07 in 7.0 mi Calm Calm - N/A   Clear
8:53 PM 19.4 °F - 12.2 °F 74% 30.07 in 7.0 mi Calm Calm - N/A   Clear
9:14 PM 17.6 °F - 10.4 °F 73% 30.07 in 7.0 mi Calm Calm - N/A   Clear
9:34 PM 17.6 °F - 12.2 °F 79% 30.08 in 5.0 mi Calm Calm - N/A   Haze
9:54 PM 17.6 °F - 10.4 °F 73% 30.08 in 5.0 mi Calm Calm - N/A   Haze
10:14 PM 17.6 °F - 10.4 °F 73% 30.09 in 7.0 mi Calm Calm - N/A   Clear
10:33 PM 19.4 °F - 12.2 °F 74% 30.08 in 5.0 mi Calm Calm - N/A   Haze
10:53 PM 17.6 °F - 10.4 °F 73% 30.09 in 7.0 mi Calm Calm - N/A   Clear
11:14 PM 17.6 °F - 10.4 °F 73% 30.09 in 5.0 mi Calm Calm - N/A   Haze